Tracking 17632 objects as of 2-May-2016
HD Live streaming from Space Station
objects crossing your sky now

SL-16 R/B

Track SL-16 R/B now!
10-day predictions
SL-16 R/B is classified as:


NORAD ID: 22285
Int'l Code: 1992-093B
Perigee: 846.9 km
Apogee: 852.0 km
Inclination: 71.0 °
Period: 101.8 minutes
Semi major axis: 7220 km
RCS: 8.7386 m2 (large)
Launch date: December 25, 1992
Source: Commonwealth of Independent States (former USSR) (CIS)
Launch site: TYURATAM MISSILE AND SPACE COMPLEX (TTMTR)

Note: This is a ROCKET BODY
Your satellite tracking list
Your tracking list is empty





NASA's NSSDC Master Catalog

Two Line Element Set (TLE):
1 22285U 92093B   16122.09846117 -.00000016  00000-0  16298-4 0  9998
2 22285  71.0234 356.7326 0003506   3.1825 356.9319 14.14997157204249
Source of the keplerian elements: AFSPC

N2YO: 347